sat.trackr.live / text

‹ back to catalog

UNKNOWN

NORAD 85010

UNKNOWN UNKNOWN UNKNOWN

§ Identity

Operator
Country
Launch date
Launch site
Launch vehicle
Mass (kg)
RCS (m²)

External: N2YO · Heavens-Above

§ Orbital elements

Epoch: 2026-09-12T02:06:33.758208Z

Period
104.68 min
Inclination
99.2270°
Eccentricity
0.0024197
Mean motion
13.75588065 rev/d
Perigee alt
961.8 km
Apogee alt
997.4 km
Semi-major
7,357.7 km
B*
7.4061e-4
RAAN
113.4915°
Arg perigee
257.9868°
Mean anomaly
254.9160°
Rev number
64,149

§ Raw data

UNKNOWN1 85010U          26255.08789072  .00000672  00000+0  74061-3 0  99902 85010  99.2270 113.4915 0024197 257.9868 254.9160 13.75588065641496

JSON: /api/v1/satellites/85010 · /tle

For live sub-satellite position, see the globe view (requires WebGL).

§ Visibility from observer

Set your observer location to see the next 7 days of passes ≥ 10°. The values pass through the URL so the page stays shareable.

No JS? Fill the form by hand. The geolocation button needs JavaScript.